Date,TemperatureHighF,TemperatureAvgF,TemperatureLowF,DewpointHighF,DewpointAvgF,DewpointLowF,HumidityHigh,HumidityAvg,HumidityLow,PressureMaxIn,PressureMinIn,WindSpeedMaxMPH,WindSpeedAvgMPH,GustSpeedMaxMPH,PrecipitationSumIn
2013-9-1,59.7,56.7,53.6,55.5,50.9,47.2,87,81,70,30.26,30.10,8,2,8,0.00
2013-9-2,69.6,63.1,59.4,60.8,57.8,55.5,90,83,73,30.23,30.08,6,2,6,0.00
2013-9-3,73.8,63.4,54.4,60.4,56.4,51.2,93,79,54,30.25,30.18,13,2,13,0.00
2013-9-4,73.3,61.0,52.7,56.1,52.7,48.5,94,76,49,30.18,29.91,8,1,9,0.00
2013-9-5,71.6,57.4,44.9,52.2,47.0,39.9,92,71,40,29.92,29.86,6,0,6,0.00
2013-9-6,58.0,50.3,42.9,48.4,45.1,39.5,93,83,64,29.95,29.89,5,1,5,0.43
2013-9-7,64.1,54.2,46.5,53.5,48.2,44.4,94,81,61,29.93,29.73,13,3,13,0.11
2013-9-8,63.8,53.7,47.2,50.5,46.7,43.2,94,78,56,29.99,29.93,4,1,5,0.11
2013-9-9,66.9,53.4,47.3,55.0,48.6,45.7,95,84,56,30.17,29.95,4,0,4,0.01
2013-9-10,70.2,56.9,47.1,51.1,47.3,43.2,88,72,48,30.24,30.17,16,1,16,0.00
2013-9-11,62.5,55.4,48.5,57.6,52.4,46.0,94,90,80,30.23,30.08,2,0,5,0.27
2013-9-12,65.2,58.2,52.6,59.5,55.2,51.1,96,90,74,30.08,29.87,6,0,6,0.12
2013-9-13,54.9,51.7,47.7,51.3,48.5,45.5,94,89,80,30.11,29.96,4,0,3,0.03
2013-9-14,69.3,51.4,39.3,49.8,44.5,37.8,97,79,46,30.07,29.92,4,0,4,0.01
2013-9-15,58.0,50.5,40.4,56.3,46.7,37.8,95,87,68,29.91,29.17,12,2,12,0.55
2013-9-16,57.7,47.1,38.2,47.2,41.8,36.2,94,82,63,29.32,29.26,7,1,7,0.01
2013-9-17,59.4,52.2,46.0,47.6,43.9,40.8,85,74,59,29.31,29.27,7,1,7,0.00
2013-9-18,59.6,53.4,42.4,48.2,44.4,39.5,96,72,59,29.73,29.29,5,1,5,0.00
2013-9-19,54.9,47.9,40.5,50.8,45.8,38.3,95,92,83,29.77,29.53,4,0,4,0.32
2013-9-20,62.7,52.5,41.3,52.0,47.6,39.7,96,84,66,30.03,29.77,9,1,9,0.00
2013-9-21,62.5,56.8,48.6,58.9,53.2,46.0,93,88,81,30.09,30.02,5,1,5,0.00
2013-9-22,69.5,62.3,52.5,60.4,57.3,50.3,93,84,68,30.28,30.09,12,2,12,0.00
2013-9-23,68.8,58.0,47.8,60.6,54.9,46.4,96,90,74,30.28,30.11,1,0,4,0.00
2013-9-24,62.3,58.6,56.1,57.6,55.8,53.8,93,90,84,30.12,29.97,4,1,4,0.00
2013-9-25,56.6,53.8,47.7,54.3,50.4,44.3,95,88,80,30.07,29.91,8,1,8,0.00
2013-9-26,58.4,51.9,43.7,50.2,46.6,40.7,93,83,69,30.13,30.07,4,1,4,0.00
2013-9-27,59.1,55.4,51.8,55.5,52.8,49.8,94,91,86,30.07,29.94,1,0,1,0.06
2013-9-28,70.6,57.7,46.5,60.0,52.9,45.1,97,85,62,29.94,29.85,4,1,4,0.00
2013-9-29,65.3,55.6,50.8,53.7,49.5,46.0,89,81,62,29.95,29.90,9,2,9,0.00
2013-9-30,59.7,54.7,51.6,51.9,49.5,47.7,89,82,72,29.93,29.84,8,2,8,0.00